#timestamp,LO_Frequency,Hit,StdDev 
1572246015.7,286047000.6,N
1572246035.5,286047000.1,N
1572246055.3,286047000.1,N
1572246075.2,286047000.1,N
1572246095.9,286047002.5,N
1572246115.7,286046999.7,N
1572246135.6,286046999.8,N
1572246155.4,286047002.7,N
1572246175.2,286047001.9,N
1572246195.1,286047004.1,Y
1572246196.0,286047004.1,P
1572246215.8,286047004.4,N
1572246235.6,286047004.2,N
1572246255.5,286047001.8,N
1572246275.3,286047001.7,N
1572246295.1,286047001.3,N
1572246315.9,286047001.8,N
1572246335.7,286047001.7,N
1572246355.5,286047004.4,Y
1572246375.4,286047000.8,P
1572246395.2,286047002.4,N
1572246415.0,286047002.4,P
1572246415.9,286047002.4,Y
1572246435.8,286046998.8,P
1572246455.6,286046997.3,N
1572246475.4,286046996.5,N
1572246495.3,286046998.5,N
1572246515.1,286046999.6,N
1572246516.0,286046999.6,N
1572246535.8,286046999.6,N
1572246555.7,286046999.0,N
1572246575.5,286046998.8,N
1572246595.3,286047000.0,N
1572246615.2,286047002.8,N
1572246635.9,286047002.5,N
1572246655.7,286046999.7,N
1572246675.6,286047000.1,N
1572246695.4,286047001.6,N
1572246715.2,286047001.6,N
1572246735.1,286046999.8,N
1572246736.0,286046999.8,N
1572246755.8,286047000.8,N
1572246775.6,286047000.9,N
1572246795.5,286047002.3,N
1572246815.3,286047002.8,N
1572246835.1,286047000.0,N
1572246855.9,286046998.2,N
1572246875.7,286046998.4,N
1572246895.5,286046998.8,N
1572246915.4,286046999.4,N
1572246935.2,286046998.7,N
1572246955.0,286046999.2,N
1572246955.9,286046999.2,N
1572246975.8,286046998.2,N
1572246995.6,286046998.8,N
1572247015.4,286046998.5,N
1572247035.3,286046997.4,N
1572247055.1,286046995.0,Y
1572247075.8,286046998.7,P
1572247095.7,286047000.4,N
1572247115.5,286047000.0,N
1572247135.3,286046998.7,N
1572247155.2,286046997.6,Y
1572247175.9,286046996.3,P
1572247195.7,286046994.1,P
1572247215.6,286046994.5,N
1572247235.4,286046993.7,N
1572247255.2,286046994.4,N
1572247275.1,286046994.3,N
1572247276.0,286046994.3,Y
1572247295.8,286046996.9,P
1572247315.6,286046997.1,P
1572247335.5,286046997.0,P
1572247355.3,286046996.8,Y
1572247375.1,286046999.6,P
1572247395.9,286046996.9,N
1572247415.7,286046999.6,N
1572247435.5,286046996.5,N
1572247455.4,286046997.2,N
1572247475.2,286046999.6,N
1572247495.0,286046999.6,N
1572247495.9,286046999.6,N
1572247515.8,286046997.8,N
1572247535.6,286046997.6,N
1572247555.4,286046995.9,Y
1572247575.3,286046997.9,P
1572247595.1,286046995.7,P
1572247615.8,286046993.4,P
1572247635.7,286046996.3,N
1572247655.5,286046994.0,Y
1572247675.3,286046997.4,P
1572247695.2,286046997.6,P
1572247715.0,286046995.0,P
1572247715.9,286046995.0,Y
1572247735.7,286046998.3,P
1572247755.6,286046998.2,N
1572247775.4,286046998.3,N
1572247795.2,286046999.4,N
1572247815.1,286046996.9,Y
1572247816.0,286046996.9,P
1572247835.8,286046998.5,N
1572247855.7,286046999.0,N
1572247875.5,286046998.0,N
1572247895.3,286046995.3,Y
1572247915.2,286046998.6,P
1572247935.9,286046998.6,P
1572247955.7,286046997.2,P
1572247975.6,286046995.6,Y
1572247995.4,286046996.6,P
1572248015.2,286046999.2,N
1572248035.1,286046996.8,P
1572248036.0,286046996.8,Y
1572248055.8,286046998.8,P
1572248075.6,286046998.7,N
1572248095.5,286046998.9,N
1572248115.3,286046996.9,Y
1572248135.1,286046998.7,P
1572248155.9,286046996.5,P
1572248175.7,286046996.9,P
1572248195.5,286046997.7,N
1572248215.4,286046999.2,N
1572248235.2,286046996.6,Y
1572248255.0,286046998.2,P
1572248255.9,286046998.2,P
1572248275.8,286047000.2,N
1572248295.6,286046999.3,N
1572248315.4,286046996.8,Y
1572248335.3,286046998.7,P
1572248355.1,286047000.8,P
1572248356.0,286047000.8,N
1572248375.8,286046999.0,N
1572248395.7,286046998.3,N
1572248415.5,286046999.4,N
1572248435.3,286046996.9,Y
1572248455.2,286046996.7,P
1572248475.9,286046995.2,P
1572248495.7,286046996.4,N
1572248515.6,286046994.1,Y
1572248535.4,286046999.4,P
1572248555.2,286046997.8,N
1572248575.1,286046997.9,N
1572248576.0,286046997.9,N
1572248595.8,286046995.7,Y
1572248615.6,286046997.8,P
1572248635.5,286046998.9,P
1572248655.3,286046997.5,P
1572248675.1,286046996.7,Y
1572248695.9,286046998.3,P
1572248715.7,286046998.8,P
1572248735.5,286046998.8,P
1572248755.4,286047000.2,N
1572248775.2,286047002.6,Y
1572248795.0,286047002.3,P
1572248796.0,286047002.3,N
1572248815.8,286047002.8,N
1572248835.6,286047001.1,N
1572248855.4,286046999.3,N
1572248875.3,286046998.4,N
1572248895.1,286046998.5,N
1572248915.8,286046996.7,N
1572248935.7,286046998.4,N
1572248955.5,286046998.8,N
1572248975.3,286046997.2,N
1572248995.2,286046997.2,N
1572249015.0,286046999.3,N
1572249015.9,286046999.3,N
1572249035.7,286046999.0,N
1572249055.6,286046996.8,N
1572249075.4,286046996.9,N
1572249095.2,286046997.5,N
1572249115.1,286046997.5,N
1572249116.0,286046997.5,N
1572249135.8,286046995.9,N
1572249155.6,286046996.4,N
1572249175.5,286046993.3,Y
1572249195.3,286046999.0,P
1572249215.2,286046998.8,P
1572249235.9,286046997.4,P
1572249255.7,286046995.6,Y
1572249275.6,286047000.6,P
1572249295.4,286046999.2,N
1572249315.2,286046997.0,P
1572249335.1,286046999.1,N
1572249336.0,286046999.1,N
1572249355.8,286047000.7,N
1572249375.6,286047001.0,N
1572249395.5,286046998.2,N
1572249415.3,286046998.8,N
1572249435.1,286046997.2,N
1572249455.9,286046997.1,N
1572249475.7,286046995.5,Y
1572249495.5,286046997.8,P
1572249515.4,286046999.1,N
1572249535.2,286046996.9,P
1572249555.0,286046996.9,Y
1572249555.9,286046996.9,P
1572249575.8,286047001.1,N
1572249595.6,286046998.0,N
